EW5925 Weather Reports


time (UTC)temp
C
wind
direction
speed
KPH
gust
KPH
rain 1hr
cm
rain 24hr
cm
rain mn
cm
humidity
%
barometer
mb
20260502194906 16 212 1.6 4.8 0.00 0.33 0.00 91 1020.2
20260502194338 16 212 0.0 3.2 0.00 0.33 0.00 91 1020.2
20260502194103 16 212 1.6 4.8 0.00 0.33 0.00 91 1020.1
20260502193331 16 212 3.2 4.8 0.00 0.33 0.00 91 1020.1
20260502192843 16 212 3.2 6.4 0.00 0.33 0.00 91 1020.2
20260502192330 16 212 1.6 6.4 0.00 0.33 0.00 91 1020.2
20260502191831 16 202 1.6 6.4 0.00 0.33 0.00 91 1020.2
20260502191342 16 202 0.0 4.8 0.00 0.36 0.00 91 1020.1
20260502190827 16 159 0.0 3.2 0.00 0.36 0.00 90 1019.9
20260502190327 16 159 1.6 3.2 0.00 0.36 0.00 90 1019.9
20260502190056 16 159 1.6 6.4 0.00 0.36 0.00 90 1019.9
20260502185321 16 159 1.6 6.4 0.00 0.36 0.00 90 1019.9
20260502184820 16 159 1.6 6.4 0.00 0.36 0.00 90 1019.9
20260502184319 16 159 1.6 6.4 0.00 0.36 0.00 90 1019.9
20260502183819 16 159 1.6 4.8 0.00 0.36 0.00 90 1019.9
20260502183317 16 159 1.6 4.8 0.00 0.36 0.00 90 1020.0
20260502182818 16 159 1.6 4.8 0.00 0.36 0.00 90 1019.9
20260502182249 16 159 1.6 4.8 0.00 0.36 0.00 90 1020.0
20260502182220 16 159 1.6 4.8 0.00 0.36 0.00 90 1020.0
20260502181452 16 159 0.0 4.8 0.00 0.36 0.00 90 1019.9
20260502180730 16 159 0.0 4.8 0.00 0.36 0.00 90 1020.0
20260502180231 16 159 1.6 4.8 0.00 0.36 0.00 90 1019.8
20260502170122 16 159 1.6 3.2 0.00 0.36 0.00 91 1020.2
20260502164121 16 128 0.0 3.2 0.00 0.36 0.00 91 1020.3
20260502163622 16 128 0.0 0.0 0.00 0.43 0.00 91 1020.3
20260502163344 16 128 0.0 0.0 0.00 0.51 0.00 91 1020.3
20260502162619 16 128 0.0 3.2 0.00 0.79 0.00 91 1020.2
20260502162121 16 128 1.6 4.8 0.00 0.84 0.00 91 1020.3
20260502161613 16 128 1.6 4.8 0.00 0.89 0.00 91 1020.3
20260502161111 16 128 1.6 3.2 0.00 0.89 0.00 91 1020.3
20260502160609 16 128 1.6 4.8 0.00 0.89 0.00 90 1020.4
20260502160111 16 128 0.0 4.8 0.00 0.89 0.00 90 1020.5
20260502152009 17 128 0.0 0.0 0.00 0.89 0.00 89 1020.9
20260502151507 17 128 0.0 0.0 0.00 0.89 0.00 89 1021.0
20260502151007 17 128 0.0 0.0 0.00 0.89 0.00 88 1021.0
20260502150502 17 128 0.0 0.0 0.00 0.89 0.00 88 1020.9
20260502130324 20 128 0.0 3.2 0.00 0.97 0.89 83 1021.2
20260502123752 20 128 3.2 8.0 0.00 0.97 0.89 83 1021.3
20260502123252 20 128 3.2 8.0 0.00 0.97 0.89 83 1021.2
20260502122753 20 128 3.2 8.0 0.00 0.97 0.89 84 1021.4
20260502122252 20 128 3.2 8.0 0.00 0.97 0.89 84 1021.5
20260502121752 20 130 4.8 9.7 0.00 0.97 0.89 84 1021.4
20260502121251 20 125 3.2 9.7 0.00 0.97 0.89 84 1021.5
20260502120752 20 101 3.2 6.4 0.00 0.97 0.89 84 1021.6
20260502120242 20 101 4.8 11.3 0.00 0.97 0.89 84 1021.5
20260502115743 20 116 4.8 11.3 0.00 0.97 0.89 85 1021.4
20260502115242 20 109 3.2 11.3 0.00 0.99 0.89 85 1021.4
20260502114740 20 117 4.8 11.3 0.00 0.99 0.89 85 1021.4
20260502114243 20 121 4.8 11.3 0.00 0.99 0.89 85 1021.4
20260502113714 20 120 4.8 8.0 0.00 0.99 0.89 85 1021.5
20260502113413 20 120 4.8 11.3 0.00 0.99 0.89 86 1021.4
20260502112921 20 120 4.8 11.3 0.00 1.17 0.89 86 1021.5
20260502112141 20 126 4.8 14.5 0.00 1.17 0.89 86 1021.6
20260502111639 20 106 4.8 14.5 0.00 1.17 0.89 87 1021.6
20260502111139 20 118 3.2 8.0 0.00 1.19 0.89 87 1021.6
20260502110640 20 118 3.2 8.0 0.00 1.22 0.89 87 1021.5
20260502110137 20 118 4.8 8.0 0.00 1.22 0.89 88 1021.5
20260502105855 20 118 4.8 9.7 0.00 1.22 0.89 88 1021.5
20260502105356 20 120 4.8 9.7 0.00 1.22 0.89 88 1021.5
20260502104632 20 131 3.2 11.3 0.00 1.22 0.89 89 1021.6
20260502104351 20 124 4.8 11.3 0.00 1.22 0.89 89 1021.5
20260502103628 20 121 4.8 8.0 0.00 1.22 0.89 89 1021.4
20260502103131 20 134 4.8 11.3 0.00 1.22 0.89 90 1021.4
20260502102623 20 116 3.2 11.3 0.00 1.24 0.89 90 1021.4
20260502102121 20 127 1.6 4.8 0.00 1.27 0.89 89 1021.4
20260502102101 20 134 0.0 4.8 0.00 1.37 0.89 89 1021.4
20260502101121 20 134 0.0 4.8 0.00 1.57 0.89 89 1021.4
20260502100613 20 134 1.6 4.8 0.00 1.73 0.89 89 1021.3
20260502100110 20 133 1.6 4.8 0.00 1.78 0.89 89 1021.3
20260502091050 20 122 3.2 4.8 0.00 2.49 0.89 88 1020.5
20260502090549 20 122 3.2 4.8 0.00 2.49 0.89 88 1020.5
20260502071248 21 116 3.2 8.0 0.03 2.51 0.89 88 1019.9
20260502070937 21 122 3.2 11.3 0.03 2.51 0.89 88 1019.8
20260502070154 21 122 3.2 11.3 0.03 2.51 0.89 88 1019.9
20260502065645 21 112 3.2 11.3 0.03 2.51 0.89 88 1019.8
20260502065146 21 114 3.2 12.9 0.03 2.51 0.89 89 1019.7
20260502064608 21 120 3.2 12.9 0.03 2.51 0.89 89 1019.7
20260502064041 21 133 3.2 8.0 0.03 2.51 0.89 89 1019.6
20260502063517 21 122 3.2 8.0 0.03 2.51 0.89 89 1019.5
20260502062948 21 126 3.2 12.9 0.03 2.51 0.89 90 1019.6
20260502062650 21 122 3.2 12.9 0.00 2.49 0.89 90 1019.6
20260502061907 21 123 3.2 11.3 0.00 2.49 0.89 90 1019.6
20260502061634 21 123 3.2 11.3 0.00 2.49 0.89 90 1019.6
20260502060842 21 113 1.6 9.7 0.00 2.49 0.89 90 1019.5
20260502060323 21 112 1.6 6.4 0.00 2.49 0.89 90 1019.5
20260502055824 22 112 3.2 8.0 0.00 2.49 0.89 90 1019.5
20260502055257 22 114 3.2 8.0 0.00 2.49 0.89 90 1019.5
20260502054952 22 122 1.6 9.7 0.00 2.49 0.89 90 1019.7
20260502054202 22 121 3.2 9.7 0.03 2.49 0.89 90 1019.6
20260502053854 22 124 3.2 14.5 0.05 2.49 0.89 90 1019.5
20260502053106 22 122 3.2 14.5 0.05 2.49 0.89 91 1019.5
20260502052541 22 175 3.2 11.3 0.05 2.49 0.89 91 1019.5
20260502052015 22 185 3.2 11.3 0.20 2.49 0.89 91 1019.5
20260502051445 22 162 3.2 6.4 0.23 2.49 0.89 90 1019.5
20260502051136 22 168 3.2 6.4 0.23 2.49 0.89 90 1019.7
20260502050358 22 157 3.2 8.0 0.23 2.49 0.89 90 1019.7
20260502045859 21 185 3.2 8.0 0.23 2.49 0.89 89 1019.8
20260502045343 21 131 3.2 6.4 0.23 2.49 0.89 89 1019.8
20260502045103 21 122 3.2 11.3 0.23 2.49 0.89 88 1019.8
20260502044340 22 128 3.2 11.3 0.23 2.49 0.89 87 1019.7
20260502044103 22 158 3.2 9.7 0.20 2.46 0.84 87 1019.7
20260502043613 22 175 1.6 20.9 0.20 2.46 0.84 87 1019.6
20260502042835 22 114 3.2 20.9 0.20 2.46 0.84 87 1019.7
20260502042332 22 114 6.4 20.9 0.18 2.44 0.81 86 1019.9
20260502041830 22 133 4.8 20.9 0.03 2.29 0.66 85 1019.9
20260502041328 23 164 3.2 11.3 0.03 2.29 0.66 85 1019.9
20260502040828 23 200 3.2 8.0 0.03 2.29 0.66 85 1019.9
20260502040549 23 180 6.4 14.5 0.03 2.29 0.66 84 1019.8
20260502035827 23 135 8.0 14.5 0.03 2.29 0.66 82 1019.9
20260502035553 23 149 6.4 14.5 0.00 2.26 0.64 80 1020.0
20260502034824 23 162 4.8 12.9 0.00 2.26 0.64 80 1019.8
20260502034324 23 136 6.4 11.3 0.00 2.26 0.64 81 1019.8
20260502034054 23 136 8.0 20.9 0.00 2.26 0.64 80 1019.8
20260502033325 24 175 9.7 20.9 0.00 2.26 0.64 78 1019.9
20260502032826 24 111 8.0 20.9 0.00 2.26 0.64 77 1019.8
20260502032305 25 123 8.0 20.9 0.00 2.26 0.64 76 1019.8
20260502031806 25 147 6.4 20.9 0.00 2.26 0.64 76 1019.8
20260502031239 25 108 8.0 20.9 0.00 2.26 0.64 74 1019.9
20260502030740 25 111 6.4 16.1 0.00 2.26 0.64 75 1019.9
20260502030238 25 120 6.4 14.5 0.00 2.26 0.64 75 1020.0
20260502025737 25 122 6.4 16.1 0.00 2.26 0.64 76 1020.1
20260502025238 25 113 8.0 20.9 0.00 2.26 0.64 76 1020.2
20260502024738 25 163 8.0 20.9 0.00 2.26 0.64 76 1020.1
20260502024236 25 142 6.4 16.1 0.00 2.26 0.64 76 1020.3
20260502023736 25 126 8.0 16.1 0.00 2.26 0.64 76 1020.4
20260502023236 25 122 9.7 17.7 0.00 2.26 0.64 75 1020.4
20260502022736 25 116 9.7 17.7 0.00 2.26 0.64 74 1020.4
20260502022234 25 114 8.0 16.1 0.00 2.26 0.64 73 1020.4
20260502021736 25 129 6.4 17.7 0.00 2.26 0.64 73 1020.5
20260502021208 25 139 6.4 17.7 0.00 2.26 0.64 74 1020.6
20260502020707 25 129 6.4 16.1 0.00 2.26 0.64 76 1020.8
20260502020206 24 128 6.4 19.3 0.00 2.26 0.64 77 1020.9
20260502015703 23 114 6.4 19.3 0.00 2.26 0.64 78 1021.0
20260502015204 23 128 9.7 22.5 0.00 2.26 0.64 78 1021.0
20260502014702 23 113 12.9 33.8 0.00 2.26 0.64 78 1021.0
20260502014201 23 117 12.9 33.8 0.00 2.26 0.64 77 1021.2
20260502013703 24 112 12.9 24.1 0.00 2.26 0.64 77 1021.0
20260502013200 23 124 11.3 24.1 0.00 2.26 0.64 78 1021.1
20260502012918 24 131 12.9 27.4 0.00 2.26 0.64 78 1021.3
20260502012157 25 101 12.9 27.4 0.00 2.26 0.64 75 1021.4
20260502011658 25 147 11.3 22.5 0.00 2.26 0.64 71 1021.4
20260502011157 25 125 9.7 22.5 0.00 2.26 0.64 70 1021.6
20260502010657 25 128 9.7 27.4 0.00 2.26 0.64 70 1021.6
20260502010159 26 93 11.3 27.4 0.00 2.26 0.64 71 1021.6
20260502005639 25 95 9.7 32.2 0.00 2.26 0.64 71 1021.7
20260502005140 25 114 9.7 32.2 0.00 2.26 0.64 71 1021.7
20260502004612 25 122 11.3 32.2 0.00 2.26 0.64 71 1021.8
20260502004111 25 121 11.3 32.2 0.00 2.26 0.64 70 1021.8
20260502003836 25 108 12.9 29.0 0.00 2.26 0.64 72 1021.7
20260502003112 25 124 14.5 29.0 0.00 2.26 0.64 73 1021.8
20260502002613 25 120 11.3 27.4 0.00 2.26 0.64 73 1021.8
20260502002113 25 131 9.7 24.1 0.00 2.26 0.64 74 1021.8
20260502001840 25 121 9.7 24.1 0.00 2.26 0.64 75 1021.8
20260502001110 25 116 9.7 24.1 0.00 2.26 0.64 76 1021.9
20260502000621 24 60 9.7 22.5 0.00 2.26 0.64 77 1021.9
20260502000111 24 122 9.7 22.5 0.00 2.26 0.64 77 1021.9
20260501235608 24 113 9.7 24.1 0.00 2.26 0.64 77 1022.0
20260501235109 24 103 11.3 25.7 0.00 2.26 0.64 77 1021.9
20260501234541 24 121 11.3 25.7 0.00 2.26 0.64 78 1021.9
20260501234042 23 122 9.7 37.0 0.00 2.26 0.64 79 1021.9
20260501233541 23 147 9.7 37.0 0.00 2.26 0.64 80 1021.8
20260501233040 24 117 9.7 24.1 0.00 2.26 0.64 80 1021.8
20260501232539 23 111 11.3 24.1 0.00 2.26 0.64 82 1021.7
20260501232039 23 120 9.7 24.1 0.00 2.26 0.64 82 1021.7
20260501231538 23 112 8.0 20.9 0.00 2.26 0.64 83 1021.7
20260501231035 23 100 8.0 22.5 0.00 2.26 0.64 84 1021.7
20260501230533 23 120 8.0 22.5 0.00 2.26 0.64 85 1021.7
20260501230522 23 114 11.3 22.5 0.00 2.26 0.64 85 1021.8
20260501225531 22 118 9.7 22.5 0.00 2.26 0.64 87 1021.9
20260501225031 22 124 6.4 19.3 0.00 2.26 0.64 88 1021.8
20260501224753 22 127 4.8 19.3 0.00 2.26 0.64 90 1021.8
20260501224029 22 126 8.0 19.3 0.00 2.26 0.64 90 1021.9
20260501223530 22 125 8.0 19.3 0.00 2.26 0.64 90 1021.8
20260501223251 22 128 6.4 19.3 0.00 2.26 0.64 91 1021.8
20260501222529 21 112 6.4 16.1 0.00 2.26 0.64 92 1021.8
20260501222032 21 118 6.4 16.1 0.00 2.26 0.64 92 1021.8
20260501221752 21 138 6.4 17.7 0.00 2.26 0.64 93 1021.7
20260501221022 21 136 6.4 19.3 0.00 2.26 0.64 94 1021.7
20260501220754 21 119 6.4 19.3 0.00 2.26 0.64 94 1021.6
20260501220240 21 134 4.8 12.9 0.00 2.26 0.64 95 1021.6
20260501215517 20 130 4.8 11.3 0.00 2.26 0.64 95 1021.6
20260501215017 20 126 4.8 12.9 0.00 2.26 0.64 95 1021.6
20260501214515 20 110 6.4 14.5 0.00 2.26 0.64 96 1021.6
20260501214233 20 121 6.4 14.5 0.00 2.26 0.64 96 1021.6
20260501213512 20 126 4.8 11.3 0.03 2.26 0.64 96 1021.6
20260501213231 20 107 3.2 11.3 0.03 2.26 0.64 96 1021.5
20260501212001 20 139 1.6 6.4 0.08 2.26 0.64 96 1021.5
20260501211503 20 139 0.0 4.8 0.08 2.26 0.64 96 1021.4
20260501211002 20 155 0.0 0.0 0.08 2.26 0.64 96 1021.3
20260501210505 20 155 0.0 0.0 0.08 2.26 0.64 96 1021.3
20260501205936 20 155 0.0 1.6 0.08 2.26 0.64 96 1021.2
20260501205409 20 155 1.6 11.3 0.08 2.26 0.64 96 1021.2
20260501204840 20 126 3.2 11.3 0.08 2.26 0.64 96 1021.2
20260501204530 20 126 4.8 12.9 0.08 2.26 0.64 96 1021.2
20260501203745 20 118 6.4 12.9 0.05 2.24 0.61 96 1021.3
20260501203231 19 129 4.8 12.9 0.05 2.24 0.61 96 1021.3
20260501202733 19 106 3.2 12.9 0.05 2.21 0.61 96 1021.4
20260501202204 19 133 4.8 12.9 0.00 2.18 0.56 96 1021.2
20260501201636 19 125 6.4 14.5 0.03 2.18 0.56 96 1021.1
20260501201111 19 113 6.4 17.7 0.03 2.18 0.56 96 1021.2
20260501200553 19 117 6.4 17.7 0.03 2.18 0.56 96 1021.0
20260501200051 19 126 8.0 20.9 0.03 2.18 0.56 96 1021.0
20260501195551 19 112 8.0 20.9 0.03 2.18 0.56 96 1021.0